Weather History for Vero Beach, FL

Change the Weather History Date:

Saturday, December 8, 2012

  Actual Average Record
Temperature  
Mean Temperature 71 °F 66 °F  
Max Temperature 79 °F 75 °F 85 °F (1948)
Min Temperature 62 °F 57 °F 32 °F (2010)
Degree Days  
Heating Degree Days 0 3  
Month to date heating degree days 0 17  
Since 1 July heating degree days 52 47  
Cooling Degree Days 6 3  
Month to date cooling degree days 31 31  
Year to date cooling degree days 3450 3342  
Growing Degree Days 20 (Base 50)    
Moisture  
Dew Point 66 °F    
Average Humidity 87    
Maximum Humidity 100    
Minimum Humidity 74    
Precipitation  
Precipitation 0.53 in 0.07 in 1.88 in (2005)
Month to date precipitation 0.87 0.60  
Year to date precipitation 47.26 50.28  
Sea Level Pressure  
Sea Level Pressure 30.02 in    
Wind  
Wind Speed 5 mph (NE)    
Max Wind Speed 24 mph    
Max Gust Speed 29 mph    
Visibility 6 miles    
Events Fog , Rain    
T = Trace of Precipitation, MM = Missing Value Source: NWS Daily Summary

Daily Weather History Graph

Daily Weather History Graph

Search for Another Location

Airport:

Trip Planner

Search our weather history database for the weather conditions in past years. The results will help you decide how hot, cold, wet, or windy it might be!

Date:

Astronomy

Dec. 08, 2012 Rise Set
Actual Time 7:00 AM EST 5:27 PM EST
Civil Twilight 6:34 AM EST 5:52 PM EST
Nautical Twilight 6:05 AM EST 6:21 PM EST
Astronomical Twilight 5:37 AM EST 6:50 PM EST
Moon 1:45 AM EST (12/8) 1:36 PM EST (12/8)
Length of Visible Light 11h 17m
Length of Day
10h 26m
Waning Crescent, 28% of the Moon is Illuminated
Dec 8
Waning Crescent
Dec 13
New
Dec 20
First Quarter
Dec 28
Full
Jan 4
Last Quarter

Hourly Weather History & Observations

Time (EST) Temp. Dew Point Humidity Pressure Visibility Wind Dir Wind Speed Gust Speed Precip Events Conditions
12:38 AM 62.6 °F 62.6 °F 100% 29.99 in 1.5 mi Calm Calm - N/A   Clear
12:48 AM 62.6 °F 60.8 °F 94% 29.99 in 3.0 mi Calm Calm - N/A   Clear
12:53 AM 62.1 °F 61.0 °F 96% 29.99 in 6.0 mi Calm Calm - N/A   Clear
12:59 AM 62.6 °F 60.8 °F 94% 29.99 in 1.8 mi Calm Calm - N/A   Clear
1:06 AM 62.6 °F 60.8 °F 94% 29.99 in 3.0 mi Calm Calm - N/A   Clear
1:53 AM 63.0 °F 61.0 °F 93% 29.99 in 10.0 mi West 3.5 mph - N/A   Clear
2:41 AM 62.6 °F 60.8 °F 94% 29.99 in 2.5 mi Calm Calm - N/A   Partly Cloudy
2:47 AM 62.6 °F 60.8 °F 94% 29.99 in 1.5 mi West 3.5 mph - N/A   Mostly Cloudy
2:53 AM 62.1 °F 60.1 °F 93% 29.99 in 3.0 mi West 3.5 mph - N/A   Mostly Cloudy
3:08 AM 62.6 °F 62.6 °F 100% 29.98 in 9.0 mi West 4.6 mph - N/A   Overcast
3:53 AM 64.0 °F 63.0 °F 96% 29.99 in 6.0 mi Calm Calm - N/A   Mostly Cloudy
4:38 AM 64.4 °F 62.6 °F 94% 29.99 in 10.0 mi Calm Calm - N/A   Overcast
4:53 AM 64.9 °F 64.0 °F 97% 29.99 in 3.0 mi Calm Calm - N/A   Overcast
4:56 AM 64.4 °F 64.4 °F 100% 29.99 in 1.8 mi Calm Calm - N/A   Overcast
5:12 AM 64.4 °F 64.4 °F 100% 30.00 in 2.5 mi Calm Calm - N/A   Overcast
5:19 AM 64.4 °F 64.4 °F 100% 30.00 in 5.0 mi Calm Calm - N/A   Overcast
5:58 AM 66.2 °F 64.4 °F 94% 30.01 in 1.5 mi Calm Calm - N/A   Overcast
6:02 AM 64.4 °F 64.4 °F 100% 30.01 in 0.8 mi Calm Calm - N/A   Overcast
6:18 AM 64.4 °F 64.4 °F 100% 30.01 in 0.2 mi Calm Calm - N/A Fog Fog
6:25 AM 64.4 °F 64.4 °F 100% 30.01 in 0.5 mi Calm Calm - N/A Fog Fog
6:39 AM 62.6 °F 62.6 °F 100% 30.02 in 0.2 mi Calm Calm - N/A Fog Fog
6:53 AM 63.0 °F 62.1 °F 97% 30.02 in 0.5 mi Calm Calm - N/A Fog Fog
7:53 AM 64.0 °F 64.0 °F 100% 30.03 in 0.2 mi Calm Calm - N/A Fog Fog
8:53 AM 70.0 °F 69.1 °F 97% 30.06 in 0.5 mi NNE 3.5 mph - N/A Fog Fog
9:25 AM 69.8 °F 69.8 °F 100% 30.07 in 2.5 mi NNE 5.8 mph - N/A   Overcast
9:32 AM 69.8 °F 69.8 °F 100% 30.07 in 1.5 mi NNE 5.8 mph - N/A   Overcast
9:53 AM 73.0 °F 70.0 °F 90% 30.07 in 10.0 mi North 4.6 mph - N/A   Scattered Clouds
10:53 AM 75.9 °F 69.1 °F 79% 30.06 in 10.0 mi NE 5.8 mph - N/A   Mostly Cloudy
11:00 AM 75.2 °F 69.8 °F 83% 30.06 in 10.0 mi NNE 5.8 mph - N/A   Mostly Cloudy
11:37 AM 78.8 °F 69.8 °F 74% 30.04 in 10.0 mi NNE 5.8 mph - N/A   Scattered Clouds
11:53 AM 77.0 °F 69.1 °F 76% 30.03 in 10.0 mi ENE 5.8 mph - N/A   Scattered Clouds
12:53 PM 78.1 °F 69.1 °F 74% 30.01 in 10.0 mi NNE 4.6 mph - N/A   Partly Cloudy
1:53 PM 79.0 °F 69.1 °F 72% 29.99 in 10.0 mi NNE 8.1 mph - N/A   Partly Cloudy
2:53 PM 77.0 °F 69.1 °F 76% 29.99 in 10.0 mi ENE 9.2 mph - N/A   Scattered Clouds
3:53 PM 77.0 °F 68.0 °F 74% 30.00 in 10.0 mi NE 11.5 mph - N/A   Clear
4:53 PM 75.9 °F 68.0 °F 76% 30.00 in 10.0 mi NE 9.2 mph - N/A   Clear
5:53 PM 73.9 °F 66.9 °F 79% 30.01 in 10.0 mi ENE 5.8 mph - N/A   Clear
6:41 PM 73.4 °F 68.0 °F 83% 30.03 in 10.0 mi ENE 4.6 mph - N/A   Mostly Cloudy
6:53 PM 73.9 °F 69.1 °F 85% 30.03 in 10.0 mi East 4.6 mph - N/A   Mostly Cloudy
7:19 PM 73.4 °F 69.8 °F 88% 30.03 in 10.0 mi East 4.6 mph - N/A   Partly Cloudy
7:53 PM 73.9 °F 69.1 °F 85% 30.04 in 10.0 mi East 5.8 mph - N/A   Scattered Clouds
8:53 PM 75.0 °F 69.1 °F 82% 30.05 in 10.0 mi East 6.9 mph - N/A   Overcast
9:53 PM 75.0 °F 69.1 °F 82% 30.06 in 10.0 mi ESE 8.1 mph - N/A   Mostly Cloudy
10:16 PM 71.6 °F 68.0 °F 88% 30.07 in 2.5 mi SSE 19.6 mph 26.5 mph 0.07 in Rain Heavy Rain
10:19 PM 69.8 °F 68.0 °F 94% 30.07 in 1.8 mi SE 20.7 mph 28.8 mph 0.11 in Rain Heavy Rain
10:32 PM 69.8 °F 66.2 °F 88% 30.07 in 2.0 mi East 11.5 mph - 0.46 in Rain Heavy Rain
10:41 PM 69.8 °F 66.2 °F 88% 30.07 in 5.0 mi ENE 8.1 mph - 0.48 in Rain Rain
10:53 PM 69.1 °F 66.9 °F 93% 30.07 in 4.0 mi ENE 10.4 mph - 0.52 in Rain Rain
11:53 PM 70.0 °F 69.1 °F 97% 30.05 in 10.0 mi East 4.6 mph - 0.01 in   Mostly Cloudy